This is the latest recevied weather packets stored in our database for station/object N3WPH. If no packets are shown the sender has not sent any weather packets the latest 10 day(s).
| Time | Temp. | Humidity | Pressure | Rain* | Wind** | Luminosity | Snow |
|---|---|---|---|---|---|---|---|
| 1777384679 | 15° C | 48% | 1020.1 hPa | 0 mm | - | 275 W/m² | - |
| 1777384378 | 15° C | 49% | 1020.2 hPa | 0 mm | - | 285 W/m² | - |
| 1777384074 | 15° C | 50% | 1020.4 hPa | 0 mm | - | 315 W/m² | - |
| 1777383770 | 15° C | 48% | 1020.2 hPa | 0 mm | - | 282 W/m² | - |
| 1777383467 | 15° C | 49% | 1020.1 hPa | 0 mm | - | 256 W/m² | - |
| 1777383163 | 15° C | 48% | 1020.2 hPa | 0 mm | - | 283 W/m² | - |
| 1777382860 | 15° C | 48% | 1020.4 hPa | 0 mm | - | 292 W/m² | - |
| 1777382555 | 15° C | 48% | 1020.4 hPa | 0 mm | - | 286 W/m² | - |
| 1777382252 | 15° C | 46% | 1020.6 hPa | 0 mm | - | 285 W/m² | - |
| 1777381948 | 15.56° C | 46% | 1020.4 hPa | 0 mm | - | 271 W/m² | - |
| 1777381648 | 15° C | 45% | 1020.6 hPa | 0 mm | - | 354 W/m² | - |
| 1777381344 | 15.56° C | 45% | 1020.4 hPa | 0 mm | - | 406 W/m² | - |
| 1777381041 | 15° C | 47% | 1020.4 hPa | 0 mm | - | 382 W/m² | - |
| 1777380737 | 15° C | 48% | 1020.3 hPa | 0 mm | - | 362 W/m² | - |
| 1777380434 | 15° C | 49% | 1020.3 hPa | 0 mm | - | 308 W/m² | - |
| 1777380131 | 14.44° C | 49% | 1020.3 hPa | 0 mm | - | 289 W/m² | - |
| 1777379826 | 14.44° C | 51% | 1020.4 hPa | 0 mm | - | 283 W/m² | - |
| 1777379523 | 13.89° C | 51% | 1020.5 hPa | 0 mm | - | 275 W/m² | - |
| 1777379217 | 13.89° C | 50% | 1020.5 hPa | 0 mm | - | 162 W/m² | - |
| 1777378913 | 13.33° C | 52% | 1020.5 hPa | 0 mm | - | 256 W/m² | - |
| 1777378609 | 12.78° C | 52% | 1020.5 hPa | 0 mm | - | 241 W/m² | - |
| 1777378305 | 12.78° C | 53% | 1020.5 hPa | 0 mm | - | 143 W/m² | - |
| 1777378004 | 12.22° C | 53% | 1020.6 hPa | 0 mm | - | 50 W/m² | - |
| 1777377698 | 12.22° C | 54% | 1020.8 hPa | 0 mm | - | 195 W/m² | - |
| 1777377393 | 11.67° C | 55% | 1020.7 hPa | 0 mm | - | 176 W/m² | - |
* Rain latest hour (hover to see other rain measurements)
** Current wind speed in m/s (hover to see current wind gust speed)